EHI
0 0 0 0 0 0 0 0 0 0 0 0 0 0 0 0 0 0 0 0 0 0 0 0 0 0 0 0 0 0 0 0 0 0 0 0 0 0
0 0 0 0 0 0 0 0 0 0 0 0 0 0 0 0 0 0 0 0 0 0 0 0 0 0 0 0 0 0 0 0 0 0 0 0 0 0
0 0 0 0 0 0 0 0 0 0 0 0 0 0 0 0 0 0 0 0 0 0 0 0 0 0 0 0 0 0 0 0 0 0 0 0 0 0
0 0 0 0 0 0 0 0 0 0 0 0 0 0 0 0 0 0 0 0 0 0 0 0 0 0 0 0 0 0 0 0 0 0 0 0 0 0
0 0 0 0 0 0 0 0 0 0 0 0 0 0 0 0 0 0 0 0 0 0 0 0 0 0 0 0 0 0 0 0 0 0 0 0 0 0
0 0 0 0 0 0 0 0 0 0 0 0 0 0 0 0 0 0 0 0 0 0 0 0 0 0 0 0 0 0 0 0 0 0 0 0 0 0
0 0 0 0 0 0 0 0 0 0 0 0 0 0 0 0 0 0 0 0 0 0 0 0 0 0 0 0 0 0 0 0 0 0 0 0 0 0
0 0 0 0 0 0 0 0 0 0 0 0 0 0 0 0 0 0 0 0 0 0 0 0 0 0 0 0 0 0 0 0 0 0 0 0 0 0
0 0 0 0 0 0 0 0 0 0 0 0 0 0 0 0 0 0 0 0 0 0 0 0 0 0 0 0 0 0 0 0 0 0 0 0 0 0
0 0 0 0 0 0 0 0 0 0 0 0 0 0 0 0 0 0 0 0 0 0 0 0 0 0 0 0 0 0 0 0 0 0 0 0 0 0
0 0 0 0 0 0 0 0 0 0 0 0 0 0 0 0 0 0 0 0 0 0 0 0 0 0 0 0 0 0 0 0 0 0 0 0 0 0
0 0 0 0 0 0 0 0 0 0 0 0 0 0 0 0 0 0 0 0 0 0 0 0 0 0 0 0 0 0 0 0 0 0 0 0 0 0
0 0 0 0 0 0 0 0 0 0 0 0 0 0 0 0 0 0 0 0 0 0 0 0 0 0 0 0 0 0 0 0 0 0 0 0 0 0
0 0 0 0 0 0 0 0 0 0 0 0 0 0 0 0 0 0 0 0 0 0 0 0 0 0 0 0 0 0 0 0 0 0 0 0 0 0
0 0 0 0 0 0 0 0 0 0 0 0 0 0 0 0 0 0 0 0 0 0 0 0 0 0 0 0 0 0 0 0 0 0 0 0 0 0
0 0 0 0 0 0 0 0 0 0 0 0 0 0 0 0 0 0 0 0 0 0 0 0 0 0 0 0 0 0 0 0 0 0 0 0 0 0
0 0 0 0 0 0 0 0 0 0 0 0 0 0 0 0 0 0 0 0 0 0 0 0 0 0 0 0 0 0 0 0 0 0 0 0 0 0
0 0 0 0 0 0 0 0 0 0 0 0 0 0 0 0 0 0 0 0 0 0 0 0 0 0 0 0 0 0 0 0 0 0 0 0 0 0
0 0 0 0 0 0 0 0 0 0 0 0 0 0 0 0 0 0 0 0 0 0 0 0 0 0 0 0 0 0 0 0 0 0 0 0 0 0
0 0 0 0 0 0 0 0 0 0 0 0 0 0 0 0 0 0 0 0 0 0 0 0 0 0 0 0 0 0 0 0 0 0 0 0 0 0
0 0 0 0 0 0 0 0 0 0 0 0 0 0 0 0 0 0 0 0 0 0 0 0 0 0 0 0 0 0 0 0 0 0 0 0 0 0
0 0 0 0 0 0 0 0 0 0 0 0 0 0 0 0 0 0 0 0 0 0 0 0 0 0 0 0 0 0 0 0 0 0 0 0 0 0
0 0 0 0 0 0 0 0 0 0 0 0 0 0 0 0 0 0 0 0 0 0 0 0 0 0 0 0 0 0 0 0 0 0 0 0 0 0
Wind_Speed
3 4 3 3 3 3 3 3 2 2 3 3 2 3 3 3 5 4 4 6 7 6 5 6 6 6 7 8 10 12 14 15 15 16 17 19 20 21
3 4 4 3 3 3 4 4 4 4 4 3 3 4 4 5 5 4 5 8 7 7 6 7 7 7 8 9 10 11 12 14 15 16 17 17 18 19
4 4 5 4 3 3 3 4 4 5 6 5 3 3 4 6 5 4 4 5 5 7 8 8 9 9 9 10 10 11 12 13 14 15 16 17 18 19
5 5 6 4 5 4 4 5 5 6 6 7 4 4 5 5 5 5 5 4 5 7 9 9 9 10 10 10 10 11 12 12 13 14 15 16 17 19
6 6 7 5 6 5 5 5 5 5 6 6 6 4 4 4 4 4 5 4 5 6 8 8 9 9 10 10 10 10 11 12 13 14 14 15 16 17
7 7 7 7 7 7 6 7 6 5 5 6 6 5 5 4 4 4 5 4 4 5 5 6 7 8 9 10 10 11 11 12 13 13 14 14 15 16
7 7 8 9 11 8 6 6 6 5 5 5 6 5 5 4 4 3 5 5 5 4 4 4 4 4 5 7 9 10 11 11 12 13 14 14 15 15
8 8 8 9 11 12 12 12 10 8 8 6 6 7 8 7 5 5 4 4 4 2 3 4 3 5 5 5 8 10 11 11 12 13 14 14 15 15
9 8 8 8 9 8 9 11 11 12 13 9 10 10 9 7 6 7 6 6 7 4 3 6 4 6 6 7 10 12 13 13 13 13 14 14 15 15
10 10 10 10 9 9 8 8 9 9 10 9 10 11 10 9 8 8 8 7 7 6 5 6 5 6 7 6 10 13 13 13 13 13 13 14 14 15
11 10 11 11 12 11 9 9 10 9 10 12 13 12 13 12 9 6 6 6 7 6 5 5 5 5 6 7 8 11 12 12 12 12 12 12 13 12
9 9 13 14 14 12 10 9 11 11 8 7 7 8 9 9 10 10 8 8 7 6 5 6 5 4 5 4 4 4 6 8 11 11 12 12 11 8
8 8 8 13 15 14 12 10 13 11 7 7 7 7 7 7 7 8 9 9 9 9 5 5 4 4 5 5 3 4 4 5 4 5 8 11 12 10
10 9 9 12 13 14 11 12 14 11 7 6 7 8 8 8 7 8 9 10 11 12 9 8 6 7 7 7 6 4 5 5 5 5 5 6 9 13
10 13 13 12 11 10 13 14 11 8 7 8 9 10 9 8 7 6 7 9 11 12 11 12 11 9 8 9 8 7 6 6 6 6 6 6 6 6
11 11 12 12 10 10 9 9 8 8 8 9 9 9 7 6 7 6 6 6 6 8 10 12 12 12 10 11 9 9 8 6 5 6 6 6 6 6
6 5 5 6 7 8 7 8 7 7 8 9 8 8 7 7 8 6 6 6 6 7 7 6 8 9 11 9 9 10 9 9 8 7 6 7 7 7
7 7 8 9 9 9 8 8 7 8 8 8 8 8 8 8 7 6 6 7 8 8 8 7 5 4 5 8 12 12 10 9 8 8 7 7 8 7
7 9 9 9 9 9 8 8 8 7 7 7 8 8 8 8 7 7 7 7 8 8 8 7 6 7 8 9 8 13 11 9 8 8 8 8 8 7
8 9 10 9 9 8 8 8 8 7 6 7 7 8 8 7 8 8 7 9 8 8 8 7 8 9 11 10 8 6 13 11 8 8 8 7 7 7
8 9 9 8 8 8 8 7 7 7 7 7 7 8 7 7 8 8 8 9 9 8 9 9 9 11 8 6 7 7 7 11 10 8 7 6 6 6
7 8 8 8 8 8 7 7 7 7 7 7 7 7 7 7 8 9 8 8 8 8 10 8 7 6 7 8 10 10 9 6 7 9 7 6 5 5
7 7 7 7 7 7 7 7 8 7 6 7 6 6 6 7 7 7 8 8 8 8 8 8 6 6 7 9 9 9 11 9 6 5 6 5 7 8
Wind_Direction
229 226 227 231 216 216 211 199 207 269 286 277 283 295 306 304 302 311 310 311 314 307 295 285 275 265 257 252 245 236 233 232 229 227 227 225 223 222
228 231 237 238 229 219 215 214 212 223 255 261 256 275 291 295 296 298 294 300 298 296 288 280 273 267 260 254 249 242 234 231 229 227 226 225 223 222
242 236 246 242 240 234 220 217 217 214 246 267 254 265 272 279 293 293 287 284 285 283 282 276 269 263 259 255 250 244 239 233 230 229 227 225 223 222
248 243 251 248 243 241 231 231 230 221 234 266 270 262 257 269 277 285 286 282 276 277 274 271 265 261 257 255 251 246 242 239 234 230 228 227 225 224
245 243 249 244 249 245 239 242 243 239 230 250 269 262 263 264 274 277 279 278 279 276 272 268 264 263 258 252 249 246 243 241 238 234 231 230 228 226
246 244 246 241 245 248 247 245 244 246 242 248 263 267 265 262 254 266 278 273 280 284 277 273 268 268 262 255 250 246 244 242 240 237 234 232 231 228
253 248 246 246 246 244 244 245 240 243 247 251 261 266 264 257 252 250 266 279 275 261 272 269 267 269 267 261 258 252 247 244 241 239 237 234 232 230
254 256 254 256 257 255 252 248 236 237 244 247 254 257 263 258 255 250 257 270 277 243 245 267 260 267 267 262 258 255 252 249 246 242 238 236 233 231
248 253 257 253 247 252 257 261 255 245 236 239 251 255 259 255 250 253 246 246 254 255 248 271 260 264 265 263 258 257 254 249 247 245 240 236 233 231
246 245 248 254 250 243 252 260 261 258 247 242 245 251 253 253 244 251 258 259 260 254 229 259 263 261 267 262 258 255 254 251 248 246 242 238 233 231
248 243 240 248 249 239 241 253 262 265 255 244 241 248 251 250 243 243 244 246 261 258 213 233 257 263 263 261 257 252 253 252 250 247 243 239 235 232
253 246 237 238 244 236 232 240 253 260 262 263 255 256 256 256 244 233 237 243 253 260 220 214 243 250 268 251 253 252 252 251 249 248 245 239 230 225
251 250 243 233 236 237 230 234 241 249 256 257 263 265 263 257 250 237 230 232 240 246 227 205 235 234 248 270 266 253 249 252 249 247 241 237 227 217
247 249 246 238 233 235 233 235 240 244 248 251 256 260 259 258 254 246 237 234 237 246 247 226 238 242 249 259 264 261 250 248 249 252 250 238 232 228
244 245 245 244 239 240 239 238 237 235 234 241 249 254 254 257 259 256 250 243 246 246 246 237 235 242 242 249 256 258 263 260 247 247 246 240 235 222
245 248 248 247 242 243 245 240 232 228 228 239 248 255 258 255 253 249 253 250 252 255 242 235 233 233 238 241 247 253 250 251 246 238 242 246 239 230
239 238 237 237 239 240 240 239 233 227 230 236 241 249 252 252 253 245 241 240 240 254 259 242 229 230 235 239 243 246 249 247 247 247 244 251 248 237
231 237 239 238 240 242 242 240 233 229 229 231 234 240 246 249 254 247 236 239 246 250 252 251 237 226 232 238 228 243 246 246 246 242 236 244 253 244
223 237 239 239 239 239 238 237 239 236 229 228 233 237 240 244 247 248 243 241 244 248 249 243 232 227 240 250 232 214 230 240 239 240 235 234 247 248
226 234 238 240 238 237 236 236 240 241 234 232 234 237 238 240 243 245 244 244 246 248 248 240 231 227 233 247 253 234 217 227 233 238 238 236 244 249
238 238 241 243 242 238 237 236 235 237 237 234 235 237 237 238 241 244 246 246 245 247 247 245 239 231 239 244 247 243 234 220 224 231 232 230 236 236
252 247 245 243 242 241 238 235 235 235 237 236 237 237 236 235 241 245 245 245 243 244 250 253 247 228 220 229 240 246 245 232 223 229 236 236 231 228
255 253 251 246 240 236 235 235 235 237 237 237 237 239 239 239 242 245 247 247 247 248 249 250 242 227 229 231 238 242 241 234 224 219 225 239 244 254